SCP
0 0 0 0 0 0 0 0 0 0 0 0 0 0 0 -0 -0 -0 -0 0 0 0 0 0 0 0 0 0 -0 0 0 -0 -0 0 -0 0 0 0 0 -0 -0 -0 -0 -0 -0 0 -0
0 0 0 0 0 0 0 0 0 0 0 0 0 0 0 0 0 0 0 0 0 0 0 0 0 0 0 0 0 -0 0 0 -0 -0 0 0 0 0 -0 -0 -0 -0 0 -0 0 0 -0
0 0 0 0 0 0 0 0 0 0 0 0 0 0 0 0 0 0 0 0 0 0 0 0 0 0 0 0 0 0 0 -0 -0 -0 -0 -0 0 -0 0 0 -0 -0 0 -0 0 0 -0
0 0 0 0 0 0 0 0 0 0 0 0 0 0 0 0 0 0 0 0 0 0 0 0 0 0 0 0 0 0 0 0 0 -0 0 -0 -0 -0 -0 0 0 0 0 0 0 -0 -0
0 0 0 0 0 0 0 0 0 0 0 0 0 0 0 0 0 0 0 0 0 0 0 0 0 0 0 0 0 0 0 0 0 0 -0 -0 -0 -0 -0 -0 0 0 -0 0 -0 -0 0
0 0 0 0 0 0 0 -0 -0 -0 -0 0 0 0 0 0 0 -0 0 0 0 -0 -0 0 0 0 0 0 0 0 0 0 0 -0 -0 0 -0 -0 -0 -0 0 0 0 0 0 -0 0
0 0 0 0 -0 -0 -0 -0 0 0 0 0 0 0 0 0 -0 -0 -0 -0 0 -0 0 0 0 0 0 0 0 0 0 0 0 0 0 0 0 -0 0 -0 -0 0 -0 0 -0 -0 -0
0 0 0 -0 0 0 0 0 0 0 0 0 0 0 0 0 -0 -0 -0 -0 -0 -0 0 0 0 0 -0 0 0 0 0 0 0 0 0 0 -0 -0 0 0 0 0 0 -0 -0 0 0
0 0 0 0 0 0 0 0 0 0 0 0 0 0 0 0 -0 -0 -0 -0 -0 -0 -0 0 0 0 0 0 0 0 0 0 0 0 0 0 0 0 0 -0 0 -0 -0 0 0 0 0
0 0 0 0 0 0 0 0 0 0 0 0 0 0 0 0 -0 -0 0 -0 -0 -0 -0 -0 -0 0 0 0 0 -0 0 0 0 0 0 0 -0 0 -0 -0 -0 -0 -0 0 0 0 0
0 0 0 0 0 0 0 0 0 0 0 0 0 0 0 0 0 -0 0 -0 -0 -0 0 0 0 0 0 0 0 0 -0 0 0 0 0 0 0 -0 0 -0 -0 -0 0 0 0 0 0
0 0 0 0 0 0 0 0 0 0 0 -0 -0 0 0 0 0 0 -0 -0 -0 -0 0 0 0 0 0 0 0 -0 0 0 0 0 0 0 0 0 0 0 -0 0 0 0 0 0 0
0 0 0 0 0 0 0 0 0 0 0 0 -0 -0 -0 0 0 -0 -0 -0 -0 -0 0 0 0 0 0 0 0 0 0 0 0 0 0 0 0 0 0 0 0 0 0 0 0 0 -0
0 0 0 0 0 0 0 0 0 0 0 0 0 0 0 0 0 -0 -0 -0 -0 -0 -0 0 0 0 0 0 0 0 0 0 0 0 0 0 0 0 0 0 0 -0 -0 -0 0 0 -0
0 0 0 0 0 0 0 0 0 0 0 0 0 0 0 0 0 0 0 0 0 0 0 0 0 0 0 0 0 0 0 0 0 0 0 0 0 0 0 0 0 0 -0 -0 -0 -0 0
0 0 0 0 0 0 0 -0 -0 0 0 0 0 0 -0 0 0 0 0 0 0 0 0 0 0 0 0 0 0 0 0 0 0 0 0 0 0 0 0 0 0 0 0 0 0 -0 -0
0 0 0 0 0 0 0 0 -0 -0 0 0 0 0 0 0 0 0 0 0 0 0 0 0 0 0 0 0 0 0 0 0 0 0 0 0 0 0 0 0 0 0 0 0 0 0 0
0 0 0 0 0 0 0 0 0 0 0 0 -0 0 -0 0 0 0 0 0 0 0 0 0 0 0 0 0 0 0 0 0 0 0 0 0 0 0 0 0 0 0 0 0 0 0 0
0 0 0 0 0 0 0 0 0 0 0 0 0 0 -0 -0 0 0 -0 0 0 0 0 0 0 0 0 0 -0 -0 0 0 0 0 0 0 0 0 0 0 0 0 0 0 0 0 0
0 0 0 0 0 0 0 0 0 0 0 0 0 0 0 -0 0 0 0 0 -0 0 0 0 -0 0 0 0 0 0 -0 0 0 0 0 0 0 0 0 0 0 0 0 0 0 0 0
0 0 0 0 0 0 0 0 0 0 0 0 0 0 0 0 0 0 0 -0 -0 -0 0 0 0 0 -0 -0 0 0 -0 0 0 0 0 0 0 0 0 0 0 0 0 0 0 0 0
0 0 0 0 0 0 0 0 0 0 0 0 0 0 0 0 0 0 -0 -0 -0 -0 0 0 0 0 0 0 -0 0 0 0 0 0 0 0 0 0 0 0 0 0 0 0 0 0 0
0 0 0 0 0 0 0 0 0 0 0 0 0 0 0 0 0 0 0 -0 -0 0 -0 -0 0 -0 0 0 -0 0 -0 -0 0 0 0 0 0 0 0 0 0 0 0 0 0 0 0
0 0 0 0 0 0 0 0 0 0 0 0 0 0 0 0 0 0 0 -0 0 0 0 0 -0 -0 -0 -0 -0 0 0 0 0 0 0 0 0 0 0 0 0 0 0 0 0 0 0
0 0 -0 0 0 0 0 0 0 0 0 0 0 0 0 0 0 0 0 0 0 -0 -0 -0 -0 0 -0 0 0 0 0 -0 0 0 0 0 0 0 0 0 0 0 0 0 0 0 0
0 -0 0 0 0 0 0 0 0 0 0 0 0 0 0 0 0 0 0 0 0 0 -0 -0 -0 -0 -0 0 0 0 0 0 -0 -0 0 -0 0 0 0 0 0 0 0 0 0 0 1
-0 0 0 0 0 0 0 0 0 0 0 0 0 0 0 0 0 0 0 0 0 0 -0 0 -0 -0 -0 -0 0 0 0 0 0 -0 -0 -0 0 0 0 0 0 0 0 0 0 1 0
-0 0 0 0 0 0 0 0 0 0 0 0 0 0 0 0 0 0 0 0 0 0 0 0 -0 0 -0 0 0 0 0 0 0 0 0 0 0 0 0 0 0 -0 0 0 0 0 0
-0 0 0 0 0 0 0 0 0 0 0 0 0 0 0 0 0 0 0 0 0 0 0 -0 -0 -0 0 0 0 0 0 0 0 0 0 0 0 0 0 0 0 0 0 0 0 0 0
Wind_Speed_500mb
39 38 37 37 38 40 41 43 45 47 49 51 51 52 52 53 54 55 56 56 52 47 43 40 30 23 20 21 45 26 39 14 33 54 56 55 58 58 48 45 51 41 49 70 75 71 55
39 38 39 40 42 43 45 46 48 50 51 52 52 54 55 55 56 57 58 55 51 47 42 36 30 20 26 33 27 30 25 27 33 57 61 59 56 58 54 52 46 40 44 46 29 16 59
38 39 40 41 42 44 46 48 50 52 53 54 55 55 56 58 58 57 54 54 53 51 43 34 26 18 28 56 14 20 29 30 35 50 59 60 56 56 58 45 62 49 28 34 30 32 25
40 40 41 42 44 45 46 48 49 52 54 56 57 58 59 60 60 56 51 54 51 46 41 27 15 17 25 18 36 34 27 36 34 40 51 51 51 52 56 52 42 38 33 30 41 44 47
39 40 41 42 43 44 46 49 52 54 55 57 58 59 59 61 60 55 54 45 48 41 35 9 5 14 22 12 40 45 43 42 41 42 46 48 50 54 48 42 36 38 35 46 45 35 37
40 41 42 44 47 52 54 54 56 58 59 61 61 60 58 57 53 52 55 55 42 28 21 9 17 19 30 29 24 42 51 43 49 46 48 53 49 37 39 37 40 38 42 40 43 36 48
42 44 45 48 50 51 53 56 57 58 59 61 62 62 59 56 43 47 56 47 57 3 27 45 24 37 34 10 5 26 48 51 54 56 44 59 36 48 55 49 45 40 44 47 43 42 48
40 42 45 47 48 51 54 57 58 59 60 62 61 59 56 50 38 39 35 45 34 32 48 56 72 82 80 55 45 32 49 59 56 52 47 43 55 51 50 49 52 54 51 46 42 24 12
43 43 45 47 49 52 54 55 57 60 61 61 62 60 57 44 27 35 24 41 40 39 29 53 74 78 79 62 62 45 62 73 53 58 59 57 36 52 52 53 53 55 53 49 42 34 22
42 43 44 46 49 52 56 60 61 63 65 66 64 62 55 52 18 28 36 46 42 36 14 19 21 10 52 58 56 69 64 74 50 60 61 58 53 56 53 55 53 55 57 54 48 36 29
40 41 43 46 49 53 57 60 64 67 68 67 64 63 50 30 37 24 46 46 38 23 15 18 14 12 20 63 2 63 71 73 61 50 53 60 56 62 55 58 55 52 50 50 49 38 34
40 42 46 51 54 56 58 62 64 66 66 67 62 58 49 24 28 35 46 44 25 13 14 21 53 51 51 22 57 65 76 77 72 59 53 64 64 57 60 45 54 49 44 48 46 35 33
41 43 46 52 58 60 60 61 62 64 69 72 70 51 26 17 16 41 39 31 13 16 33 32 50 56 54 52 42 48 46 59 53 56 54 54 68 58 50 42 51 48 45 29 33 34 34
41 44 48 51 55 59 60 61 63 67 72 83 80 31 25 18 28 37 31 23 20 22 31 40 37 50 52 48 39 46 47 54 63 62 38 48 47 69 46 57 47 56 51 28 48 35 35
42 45 46 48 51 56 60 63 66 69 73 78 78 39 25 10 31 30 31 20 21 21 32 37 47 40 47 54 37 54 52 51 59 60 59 46 58 45 68 48 50 53 50 47 41 42 33
42 44 45 48 51 55 61 66 69 74 78 80 68 43 32 17 34 24 23 29 26 25 29 35 46 39 46 50 46 42 37 29 47 60 62 60 41 61 61 53 57 59 43 42 34 43 43
40 41 44 47 50 53 60 66 70 73 81 80 46 34 4 25 30 32 21 28 28 35 32 31 37 43 41 48 42 38 35 61 51 54 44 61 55 49 58 63 54 42 45 50 40 33 31
38 40 43 47 50 54 58 64 70 72 75 70 34 19 41 33 30 21 15 21 27 37 39 24 24 34 39 40 39 41 41 44 62 45 42 35 51 42 61 60 62 55 56 51 24 40 32
40 42 45 47 50 55 58 61 66 68 63 62 44 53 27 28 17 21 33 28 28 29 25 21 12 27 27 37 37 21 27 52 81 51 30 27 20 36 53 51 58 65 60 59 45 33 40
43 46 49 50 51 54 56 58 60 62 53 51 30 15 35 38 32 36 39 30 31 28 20 27 47 12 21 31 35 22 26 26 72 64 56 19 20 38 39 43 36 55 60 58 58 32 33
48 51 54 55 54 54 56 56 56 54 48 28 22 13 32 15 25 41 41 35 35 25 3 13 32 10 22 28 33 15 18 37 38 48 33 30 31 34 46 47 50 56 54 58 59 46 40
51 53 56 56 55 54 54 55 57 47 42 21 17 8 17 32 36 32 38 24 39 30 29 31 37 13 37 24 23 30 24 26 18 33 43 34 22 23 35 43 42 49 64 61 58 57 47
55 55 57 57 58 58 55 54 53 43 33 14 14 22 13 12 19 18 24 27 35 49 39 44 22 29 33 26 30 44 38 42 37 38 32 23 22 20 33 35 39 42 29 29 53 49 47
59 61 63 62 62 59 56 54 50 41 30 28 26 30 6 8 13 19 30 47 38 41 44 47 46 30 40 42 43 42 48 46 42 39 32 23 24 18 19 26 31 23 20 31 25 51 47
61 62 63 61 61 58 56 53 49 41 28 32 34 34 8 7 16 29 35 39 44 46 36 42 48 27 37 39 28 29 25 25 34 38 31 20 17 14 12 15 17 27 29 33 20 16 12
63 63 63 62 60 58 55 51 48 41 30 33 36 39 28 6 12 20 20 39 24 25 29 21 24 29 22 18 21 28 16 15 27 40 30 21 21 18 17 15 20 15 12 12 6 25 37
65 63 62 59 57 56 53 52 48 39 31 30 40 39 34 15 37 26 11 17 17 18 18 29 45 35 21 13 19 19 15 18 13 28 34 26 20 22 19 13 11 17 38 19 21 11 34
64 59 57 53 52 52 51 51 47 40 29 28 35 31 34 21 44 39 37 27 23 13 11 37 20 14 10 9 8 12 7 10 12 7 6 7 21 18 24 29 14 7 16 14 14 27 35
56 53 51 49 49 50 48 50 46 37 24 22 29 23 17 38 21 28 31 38 39 39 34 24 30 33 11 11 8 8 19 14 19 10 17 5 13 14 13 25 29 37 37 29 14 17 24
Wind_Direction_500mb
25 24 23 20 15 12 10 7 6 5 2 359 356 353 349 344 340 337 333 332 329 328 321 315 316 283 236 226 242 250 289 268 191 202 205 209 214 216 219 227 231 229 179 214 247 234 154
21 21 19 16 12 10 8 5 3 2 1 357 354 352 349 345 341 338 335 332 330 328 320 311 310 276 223 246 258 253 234 227 205 197 208 210 216 217 225 231 235 231 214 227 243 218 166
21 19 16 12 11 9 5 3 1 360 357 353 352 352 349 346 343 341 337 332 329 326 319 304 298 256 237 236 237 217 206 218 201 205 207 211 216 217 225 229 241 230 254 233 241 225 205
18 16 13 11 8 6 3 0 358 357 356 352 352 352 350 346 344 342 339 331 325 323 321 305 281 217 252 279 220 212 215 213 210 212 206 210 214 225 227 239 255 239 233 258 218 213 236
15 13 12 9 6 4 2 359 358 358 355 352 352 352 351 348 349 347 344 340 323 316 316 318 132 216 265 266 220 220 215 210 204 205 211 218 214 229 226 234 238 229 228 229 232 224 232
14 13 10 7 6 5 2 360 359 357 354 352 352 351 351 349 351 356 360 347 340 325 349 328 250 245 250 238 230 216 208 206 202 203 211 219 210 218 227 215 225 216 225 237 229 191 228
11 9 8 7 7 5 3 1 358 356 353 351 350 348 349 349 358 12 9 3 357 312 326 275 240 247 286 283 196 205 200 199 202 206 208 208 209 215 215 225 228 240 226 227 243 226 219
10 10 10 9 7 5 3 1 359 356 353 350 349 348 346 346 351 5 5 4 355 311 300 279 265 261 256 262 285 218 194 198 202 206 204 203 223 215 222 218 227 235 248 228 238 193 112
12 12 11 8 5 4 2 360 358 356 352 349 347 348 346 348 349 2 353 344 336 324 289 289 251 244 239 236 239 227 198 201 203 207 204 215 213 221 218 222 220 229 237 247 227 146 225
9 11 9 4 2 3 1 1 358 356 352 348 345 343 346 345 346 338 340 335 332 327 288 278 193 281 222 220 229 229 203 205 211 212 214 220 229 201 219 222 219 222 227 246 258 174 200
8 9 4 2 3 3 2 359 358 356 350 346 342 337 337 345 334 336 331 329 324 310 300 86 81 353 341 203 290 204 218 207 218 209 212 218 216 230 208 224 219 231 224 232 253 262 250
6 4 4 1 0 1 359 358 357 355 349 342 339 332 330 338 312 318 326 324 315 247 254 11 9 354 346 248 233 257 207 213 220 228 219 227 214 226 231 212 226 222 229 225 235 250 248
6 5 5 4 358 358 357 357 355 351 350 344 339 331 320 333 301 328 325 322 265 247 305 359 352 345 326 308 300 238 232 209 212 218 219 218 228 218 224 215 212 217 218 220 216 218 236
5 6 5 4 360 357 356 356 354 352 351 351 341 329 330 294 323 319 321 286 267 273 293 342 347 323 306 290 297 291 244 215 210 223 221 218 215 222 204 221 206 212 215 219 216 218 220
5 6 3 360 359 356 353 354 354 352 350 348 342 338 285 270 329 317 295 274 312 6 342 331 324 313 311 312 340 331 293 238 209 219 226 222 229 206 231 209 223 202 215 221 231 223 228
4 2 358 356 357 355 352 353 353 351 351 350 340 318 279 273 320 301 270 272 292 5 351 322 310 316 301 304 314 325 310 272 232 216 230 245 251 223 207 216 217 226 199 216 229 235 232
358 357 354 353 353 353 351 351 351 352 350 353 345 315 11 321 312 270 261 314 350 345 313 302 299 301 297 296 338 316 289 325 355 332 250 227 249 250 219 205 206 212 223 207 225 232 239
351 351 349 348 348 348 349 347 347 352 351 359 344 304 307 330 297 285 318 351 347 311 308 313 301 297 309 314 302 291 292 287 307 317 304 266 230 245 251 212 209 211 218 216 218 212 242
341 341 341 341 342 341 342 342 344 349 356 347 329 312 316 325 316 339 321 327 332 308 317 318 302 310 315 307 299 292 301 327 310 320 345 342 248 230 242 249 199 209 210 220 220 219 219
331 331 332 333 336 336 335 336 339 343 352 348 327 322 328 320 348 341 340 323 309 327 3 352 311 327 313 300 290 302 332 313 314 300 298 304 261 250 227 230 229 193 217 210 223 211 218
325 325 325 327 331 331 332 331 332 336 344 355 342 322 333 305 340 324 312 306 302 314 24 155 276 354 290 309 313 306 316 320 315 314 326 266 266 258 261 239 242 195 210 215 214 230 207
323 323 322 325 326 327 328 327 328 332 334 330 307 327 326 302 301 305 303 315 299 323 318 325 302 9 282 304 307 295 317 301 305 313 334 331 277 277 273 270 275 270 200 210 220 221 224
323 323 322 323 322 322 323 321 321 325 329 312 293 286 296 268 294 289 286 303 324 316 314 305 292 294 309 314 298 294 284 267 263 283 303 319 332 297 257 249 253 255 235 225 209 219 219
322 320 320 321 320 320 319 317 317 317 307 285 280 278 256 267 272 281 295 294 303 298 299 296 297 295 305 299 297 287 267 249 252 265 270 291 305 302 281 290 243 253 231 247 284 211 212
321 321 322 321 318 318 317 317 315 311 303 287 278 268 238 266 268 284 284 289 298 291 299 270 271 306 267 292 288 290 272 225 234 244 248 259 286 294 275 246 249 257 223 214 227 224 327
322 322 321 319 318 317 319 316 315 312 309 290 277 277 242 259 241 271 310 297 299 313 295 288 317 286 310 272 273 278 300 315 220 213 227 222 246 274 290 281 230 259 287 222 141 201 1
323 322 320 319 320 318 316 316 317 314 311 286 279 279 240 216 267 265 240 303 308 319 295 320 341 309 275 306 301 283 294 301 313 197 184 204 218 234 244 262 307 329 357 5 195 48 20
325 322 321 323 322 318 319 319 317 315 315 292 283 280 248 239 270 264 268 263 271 270 292 319 318 351 21 333 328 357 351 328 293 79 15 282 203 208 246 241 224 88 306 31 63 57 31
327 325 327 327 324 322 325 322 321 322 306 284 274 284 268 236 262 269 271 270 259 266 273 292 309 324 338 14 346 333 315 313 333 300 10 185 265 288 250 245 343 346 341 26 29 3 26
Wind_Speed_850mb
39 38 37 37 38 40 41 43 45 47 49 51 51 52 52 53 54 55 56 56 52 47 43 40 30 23 20 21 45 26 39 14 33 54 56 55 58 58 48 45 51 41 49 70 75 71 55
39 38 39 40 42 43 45 46 48 50 51 52 52 54 55 55 56 57 58 55 51 47 42 36 30 20 26 33 27 30 25 27 33 57 61 59 56 58 54 52 46 40 44 46 29 16 59
38 39 40 41 42 44 46 48 50 52 53 54 55 55 56 58 58 57 54 54 53 51 43 34 26 18 28 56 14 20 29 30 35 50 59 60 56 56 58 45 62 49 28 34 30 32 25
40 40 41 42 44 45 46 48 49 52 54 56 57 58 59 60 60 56 51 54 51 46 41 27 15 17 25 18 36 34 27 36 34 40 51 51 51 52 56 52 42 38 33 30 41 44 47
39 40 41 42 43 44 46 49 52 54 55 57 58 59 59 61 60 55 54 45 48 41 35 9 5 14 22 12 40 45 43 42 41 42 46 48 50 54 48 42 36 38 35 46 45 35 37
40 41 42 44 47 52 54 54 56 58 59 61 61 60 58 57 53 52 55 55 42 28 21 9 17 19 30 29 24 42 51 43 49 46 48 53 49 37 39 37 40 38 42 40 43 36 48
42 44 45 48 50 51 53 56 57 58 59 61 62 62 59 56 43 47 56 47 57 3 27 45 24 37 34 10 5 26 48 51 54 56 44 59 36 48 55 49 45 40 44 47 43 42 48
40 42 45 47 48 51 54 57 58 59 60 62 61 59 56 50 38 39 35 45 34 32 48 56 72 82 80 55 45 32 49 59 56 52 47 43 55 51 50 49 52 54 51 46 42 24 12
43 43 45 47 49 52 54 55 57 60 61 61 62 60 57 44 27 35 24 41 40 39 29 53 74 78 79 62 62 45 62 73 53 58 59 57 36 52 52 53 53 55 53 49 42 34 22
42 43 44 46 49 52 56 60 61 63 65 66 64 62 55 52 18 28 36 46 42 36 14 19 21 10 52 58 56 69 64 74 50 60 61 58 53 56 53 55 53 55 57 54 48 36 29
40 41 43 46 49 53 57 60 64 67 68 67 64 63 50 30 37 24 46 46 38 23 15 18 14 12 20 63 2 63 71 73 61 50 53 60 56 62 55 58 55 52 50 50 49 38 34
40 42 46 51 54 56 58 62 64 66 66 67 62 58 49 24 28 35 46 44 25 13 14 21 53 51 51 22 57 65 76 77 72 59 53 64 64 57 60 45 54 49 44 48 46 35 33
41 43 46 52 58 60 60 61 62 64 69 72 70 51 26 17 16 41 39 31 13 16 33 32 50 56 54 52 42 48 46 59 53 56 54 54 68 58 50 42 51 48 45 29 33 34 34
41 44 48 51 55 59 60 61 63 67 72 83 80 31 25 18 28 37 31 23 20 22 31 40 37 50 52 48 39 46 47 54 63 62 38 48 47 69 46 57 47 56 51 28 48 35 35
42 45 46 48 51 56 60 63 66 69 73 78 78 39 25 10 31 30 31 20 21 21 32 37 47 40 47 54 37 54 52 51 59 60 59 46 58 45 68 48 50 53 50 47 41 42 33
42 44 45 48 51 55 61 66 69 74 78 80 68 43 32 17 34 24 23 29 26 25 29 35 46 39 46 50 46 42 37 29 47 60 62 60 41 61 61 53 57 59 43 42 34 43 43
40 41 44 47 50 53 60 66 70 73 81 80 46 34 4 25 30 32 21 28 28 35 32 31 37 43 41 48 42 38 35 61 51 54 44 61 55 49 58 63 54 42 45 50 40 33 31
38 40 43 47 50 54 58 64 70 72 75 70 34 19 41 33 30 21 15 21 27 37 39 24 24 34 39 40 39 41 41 44 62 45 42 35 51 42 61 60 62 55 56 51 24 40 32
40 42 45 47 50 55 58 61 66 68 63 62 44 53 27 28 17 21 33 28 28 29 25 21 12 27 27 37 37 21 27 52 81 51 30 27 20 36 53 51 58 65 60 59 45 33 40
43 46 49 50 51 54 56 58 60 62 53 51 30 15 35 38 32 36 39 30 31 28 20 27 47 12 21 31 35 22 26 26 72 64 56 19 20 38 39 43 36 55 60 58 58 32 33
48 51 54 55 54 54 56 56 56 54 48 28 22 13 32 15 25 41 41 35 35 25 3 13 32 10 22 28 33 15 18 37 38 48 33 30 31 34 46 47 50 56 54 58 59 46 40
51 53 56 56 55 54 54 55 57 47 42 21 17 8 17 32 36 32 38 24 39 30 29 31 37 13 37 24 23 30 24 26 18 33 43 34 22 23 35 43 42 49 64 61 58 57 47
55 55 57 57 58 58 55 54 53 43 33 14 14 22 13 12 19 18 24 27 35 49 39 44 22 29 33 26 30 44 38 42 37 38 32 23 22 20 33 35 39 42 29 29 53 49 47
59 61 63 62 62 59 56 54 50 41 30 28 26 30 6 8 13 19 30 47 38 41 44 47 46 30 40 42 43 42 48 46 42 39 32 23 24 18 19 26 31 23 20 31 25 51 47
61 62 63 61 61 58 56 53 49 41 28 32 34 34 8 7 16 29 35 39 44 46 36 42 48 27 37 39 28 29 25 25 34 38 31 20 17 14 12 15 17 27 29 33 20 16 12
63 63 63 62 60 58 55 51 48 41 30 33 36 39 28 6 12 20 20 39 24 25 29 21 24 29 22 18 21 28 16 15 27 40 30 21 21 18 17 15 20 15 12 12 6 25 37
65 63 62 59 57 56 53 52 48 39 31 30 40 39 34 15 37 26 11 17 17 18 18 29 45 35 21 13 19 19 15 18 13 28 34 26 20 22 19 13 11 17 38 19 21 11 34
64 59 57 53 52 52 51 51 47 40 29 28 35 31 34 21 44 39 37 27 23 13 11 37 20 14 10 9 8 12 7 10 12 7 6 7 21 18 24 29 14 7 16 14 14 27 35
56 53 51 49 49 50 48 50 46 37 24 22 29 23 17 38 21 28 31 38 39 39 34 24 30 33 11 11 8 8 19 14 19 10 17 5 13 14 13 25 29 37 37 29 14 17 24
Wind_Direction_850mb
25 24 23 20 15 12 10 7 6 5 2 359 356 353 349 344 340 337 333 332 329 328 321 315 316 283 236 226 242 250 289 268 191 202 205 209 214 216 219 227 231 229 179 214 247 234 154
21 21 19 16 12 10 8 5 3 2 1 357 354 352 349 345 341 338 335 332 330 328 320 311 310 276 223 246 258 253 234 227 205 197 208 210 216 217 225 231 235 231 214 227 243 218 166
21 19 16 12 11 9 5 3 1 360 357 353 352 352 349 346 343 341 337 332 329 326 319 304 298 256 237 236 237 217 206 218 201 205 207 211 216 217 225 229 241 230 254 233 241 225 205
18 16 13 11 8 6 3 0 358 357 356 352 352 352 350 346 344 342 339 331 325 323 321 305 281 217 252 279 220 212 215 213 210 212 206 210 214 225 227 239 255 239 233 258 218 213 236
15 13 12 9 6 4 2 359 358 358 355 352 352 352 351 348 349 347 344 340 323 316 316 318 132 216 265 266 220 220 215 210 204 205 211 218 214 229 226 234 238 229 228 229 232 224 232
14 13 10 7 6 5 2 360 359 357 354 352 352 351 351 349 351 356 360 347 340 325 349 328 250 245 250 238 230 216 208 206 202 203 211 219 210 218 227 215 225 216 225 237 229 191 228
11 9 8 7 7 5 3 1 358 356 353 351 350 348 349 349 358 12 9 3 357 312 326 275 240 247 286 283 196 205 200 199 202 206 208 208 209 215 215 225 228 240 226 227 243 226 219
10 10 10 9 7 5 3 1 359 356 353 350 349 348 346 346 351 5 5 4 355 311 300 279 265 261 256 262 285 218 194 198 202 206 204 203 223 215 222 218 227 235 248 228 238 193 112
12 12 11 8 5 4 2 360 358 356 352 349 347 348 346 348 349 2 353 344 336 324 289 289 251 244 239 236 239 227 198 201 203 207 204 215 213 221 218 222 220 229 237 247 227 146 225
9 11 9 4 2 3 1 1 358 356 352 348 345 343 346 345 346 338 340 335 332 327 288 278 193 281 222 220 229 229 203 205 211 212 214 220 229 201 219 222 219 222 227 246 258 174 200
8 9 4 2 3 3 2 359 358 356 350 346 342 337 337 345 334 336 331 329 324 310 300 86 81 353 341 203 290 204 218 207 218 209 212 218 216 230 208 224 219 231 224 232 253 262 250
6 4 4 1 0 1 359 358 357 355 349 342 339 332 330 338 312 318 326 324 315 247 254 11 9 354 346 248 233 257 207 213 220 228 219 227 214 226 231 212 226 222 229 225 235 250 248
6 5 5 4 358 358 357 357 355 351 350 344 339 331 320 333 301 328 325 322 265 247 305 359 352 345 326 308 300 238 232 209 212 218 219 218 228 218 224 215 212 217 218 220 216 218 236
5 6 5 4 360 357 356 356 354 352 351 351 341 329 330 294 323 319 321 286 267 273 293 342 347 323 306 290 297 291 244 215 210 223 221 218 215 222 204 221 206 212 215 219 216 218 220
5 6 3 360 359 356 353 354 354 352 350 348 342 338 285 270 329 317 295 274 312 6 342 331 324 313 311 312 340 331 293 238 209 219 226 222 229 206 231 209 223 202 215 221 231 223 228
4 2 358 356 357 355 352 353 353 351 351 350 340 318 279 273 320 301 270 272 292 5 351 322 310 316 301 304 314 325 310 272 232 216 230 245 251 223 207 216 217 226 199 216 229 235 232
358 357 354 353 353 353 351 351 351 352 350 353 345 315 11 321 312 270 261 314 350 345 313 302 299 301 297 296 338 316 289 325 355 332 250 227 249 250 219 205 206 212 223 207 225 232 239
351 351 349 348 348 348 349 347 347 352 351 359 344 304 307 330 297 285 318 351 347 311 308 313 301 297 309 314 302 291 292 287 307 317 304 266 230 245 251 212 209 211 218 216 218 212 242
341 341 341 341 342 341 342 342 344 349 356 347 329 312 316 325 316 339 321 327 332 308 317 318 302 310 315 307 299 292 301 327 310 320 345 342 248 230 242 249 199 209 210 220 220 219 219
331 331 332 333 336 336 335 336 339 343 352 348 327 322 328 320 348 341 340 323 309 327 3 352 311 327 313 300 290 302 332 313 314 300 298 304 261 250 227 230 229 193 217 210 223 211 218
325 325 325 327 331 331 332 331 332 336 344 355 342 322 333 305 340 324 312 306 302 314 24 155 276 354 290 309 313 306 316 320 315 314 326 266 266 258 261 239 242 195 210 215 214 230 207
323 323 322 325 326 327 328 327 328 332 334 330 307 327 326 302 301 305 303 315 299 323 318 325 302 9 282 304 307 295 317 301 305 313 334 331 277 277 273 270 275 270 200 210 220 221 224
323 323 322 323 322 322 323 321 321 325 329 312 293 286 296 268 294 289 286 303 324 316 314 305 292 294 309 314 298 294 284 267 263 283 303 319 332 297 257 249 253 255 235 225 209 219 219
322 320 320 321 320 320 319 317 317 317 307 285 280 278 256 267 272 281 295 294 303 298 299 296 297 295 305 299 297 287 267 249 252 265 270 291 305 302 281 290 243 253 231 247 284 211 212
321 321 322 321 318 318 317 317 315 311 303 287 278 268 238 266 268 284 284 289 298 291 299 270 271 306 267 292 288 290 272 225 234 244 248 259 286 294 275 246 249 257 223 214 227 224 327
322 322 321 319 318 317 319 316 315 312 309 290 277 277 242 259 241 271 310 297 299 313 295 288 317 286 310 272 273 278 300 315 220 213 227 222 246 274 290 281 230 259 287 222 141 201 1
323 322 320 319 320 318 316 316 317 314 311 286 279 279 240 216 267 265 240 303 308 319 295 320 341 309 275 306 301 283 294 301 313 197 184 204 218 234 244 262 307 329 357 5 195 48 20
325 322 321 323 322 318 319 319 317 315 315 292 283 280 248 239 270 264 268 263 271 270 292 319 318 351 21 333 328 357 351 328 293 79 15 282 203 208 246 241 224 88 306 31 63 57 31
327 325 327 327 324 322 325 322 321 322 306 284 274 284 268 236 262 269 271 270 259 266 273 292 309 324 338 14 346 333 315 313 333 300 10 185 265 288 250 245 343 346 341 26 29 3 26